Location: Cluj-Napoca
(46.7712°N, 23.6236°E)
Time: 06:24:43
(UTC+02:00)

ISS - Pass Details

Date: 22 January 2021
Orbit: 418 x 421 km, 51.6° (Epoch: 23 January)

Event Time Altitude Azimuth Distance (km) Brightness Sun altitude
Rises 18:06:19 0° 225° (SW) 2,359 1.4 -9.0°
Reaches altitude 10° 18:08:27 10° 219° (SW) 1,498 0.0 -9.4°
Maximum altitude 18:11:40 45° 146° (SE) 586 -3.2 -9.9°
Enters shadow 18:14:10 16° 77° (ENE) 1,215 -2.1 -10.3°
